Tracking 30260 objects as of 14-Feb-2025
HD Live streaming from Space Station
objects crossing your sky now

LINGQIAO VIDEO A

Track LINGQIAO VIDEO A now!
10-day predictions


NORAD ID: 40959
Int'l Code: 2015-057B
Perigee: 635.5 km
Apogee: 661.5 km
Inclination: 97.7 °
Period: 97.5 minutes
Semi major axis: 7019 km
RCS: Unknown
Launch date: October 7, 2015
Source: People's Republic of China (PRC)
Launch site: Jiuquan Satellite Launch Center, China (JSC)

LINGQIAO VIDEO A is a Chinese satellite designed for video capture.
Your satellite tracking list
Your tracking list is empty




NASA's NSSDC Master Catalog

Two Line Element Set (TLE):
1 40959U 15057B   25045.21361299  .00001835  00000-0  27134-3 0  9991
2 40959  97.6570  59.8906 0018520  58.1262 302.1748 14.76210322503382
Source of the keplerian elements: AFSPC